[[{"header":{"parameterUnit":"m.s-1","parameterCategory":1,"la1":30.2991,"la2":30.254,"lo1":-89.0895,"lo2":-89.0444,"dy":0.0017,"dx":0.0017,"nx":28,"ny":28,"refTime":"2024-08-22T21:00:00:Z","depth":0,"parameterNumber":2,"parameterNumberName":"U-component_of_WINDS"},"data":[0,0,0,0,0,0,0,0,0,0,0,0,0,0,0,0,0,0,0,0,0,0,0,0,0,0,0,0,0,0,0,0,0,0,0,0,0,0,0,0,0,0,0,0,0,0,0,0,0,0,0,0,0,0,0,0,0,0,-2.139,-2.139,0,-2.1361,-2.136,-2.136,-2.1302,-2.1301,-2.13,-2.1299,-2.127,-2.127,-2.1271,0,0,0,0,0,0,0,0,0,0,0,0,0,-2.1398,-2.1398,-2.139,-2.139,-2.1389,-2.1361,-2.136,-2.136,-2.1303,-2.1301,-2.13,-2.1299,-2.127,-2.127,-2.1271,0,0,0,0,0,0,0,0,0,0,0,0,0,-2.1384,-2.1398,-2.139,-2.1357,-2.1354,-2.1361,-2.136,-2.136,-2.1303,-2.1301,-2.1299,-2.1298,-2.127,-2.127,-2.1271,-2.1308,0,0,-2.1272,-2.1272,0,0,0,0,0,0,0,0,-2.1385,-2.1384,-2.1362,-2.136,-2.1356,-2.1333,-2.1352,-2.1342,-2.1303,-2.1322,-2.1299,-2.1297,-2.1293,-2.1291,-2.1289,-2.1306,-2.1305,-2.1272,-2.1272,-2.1273,-2.1273,0,0,0,0,0,0,0,-2.1386,-2.1385,-2.1378,-2.1362,-2.1358,-2.1344,-2.1341,-2.135,-2.1317,-2.1321,-2.1316,-2.1314,-2.1291,-2.1289,-2.1288,-2.1304,-2.1272,-2.1273,-2.1273,-2.1273,-2.1351,-2.1353,0,0,0,0,0,0,-2.1392,-2.1386,-2.1379,-2.1377,-2.1367,-2.1346,-2.1341,-2.1342,-2.1317,-2.1312,-2.1315,-2.1311,-2.1289,-2.1288,-2.1287,-2.1329,-2.1273,-2.1273,-2.1273,-2.1349,-2.1351,-2.1353,0,0,0,0,0,0,-2.1392,-2.1392,-2.138,-2.1381,-2.1378,-2.1347,-2.1349,-2.1343,-2.1341,-2.1313,-2.1307,-2.132,-2.1288,-2.1286,-2.1303,-2.1327,-2.1273,-2.1274,-2.1347,-2.135,-2.1352,-2.1413,0,0,0,0,0,0,-2.1393,-2.1392,-2.1405,-2.1381,-2.1378,-2.1397,-2.135,-2.1343,-2.1342,-2.1336,-2.1316,-2.1311,-2.1286,-2.1303,-2.1303,-2.1327,-2.1274,-2.1345,-2.1348,-2.1351,-2.1409,-2.1418,-2.1425,0,0,0,0,0,-2.1393,-2.1424,-2.1406,-2.1406,-2.1394,-2.1398,-2.1397,-2.1368,-2.1344,-2.1358,-2.1339,-2.1311,-2.1324,-2.1305,-2.1305,-2.1329,-2.1343,-2.1347,-2.1351,-2.1405,-2.1416,-2.1425,0,0,0,0,0,0,-2.1452,-2.142,-2.14,-2.1424,-2.1414,-2.1388,-2.1405,-2.138,-2.1377,-2.1372,-2.1337,-2.1332,-2.1354,-2.1343,-2.1322,-2.1364,-2.1329,-2.1334,-2.137,-2.138,-2.1388,-2.1391,-2.1274,0,0,0,0,0,-2.1468,-2.1473,-2.1445,-2.1469,-2.1465,-2.1436,-2.1436,-2.1415,-2.1403,-2.1399,-2.1382,-2.1373,-2.1374,-2.1377,-2.1377,-2.1407,-2.1402,-2.1423,-2.1432,-2.1438,-2.1443,-2.1459,-2.1469,-2.1367,-2.1366,-2.1366,0,0,-2.15,-2.1484,-2.1489,-2.148,-2.147,-2.1477,-2.1433,-2.1442,-2.1447,-2.1401,-2.1415,-2.1403,-2.139,-2.1413,-2.1423,-2.1405,-2.147,-2.1444,-2.1449,-2.145,-2.1464,-2.1474,-2.1483,-2.1369,-2.1369,-2.1368,0,0,-2.1564,-2.1551,-2.157,-2.1561,-2.1546,-2.1526,-2.1531,-2.1509,-2.1498,-2.1512,-2.1478,-2.1484,-2.1488,-2.148,-2.1477,-2.1537,-2.1512,-2.1538,-2.1581,-2.1597,-2.1605,-2.1612,-2.1635,-2.1644,-2.1543,-2.1543,-2.1543,0,-2.1606,-2.1615,-2.1583,-2.1594,-2.1592,-2.155,-2.1569,-2.1562,-2.1548,-2.1547,-2.1527,-2.1532,-2.152,-2.1542,-2.1556,-2.1555,-2.156,-2.1541,-2.1607,-2.1613,-2.1619,-2.1641,-2.1649,-2.1546,-2.1546,-2.1546,-2.1545,0,-2.1669,-2.1675,-2.1692,-2.168,-2.1679,-2.1694,-2.1665,-2.1668,-2.1647,-2.163,-2.1645,-2.163,-2.1626,-2.163,-2.1609,-2.1649,-2.1638,-2.1613,-2.1578,-2.1633,-2.1653,-2.166,-2.1551,-2.155,-2.1549,-2.1548,0,0,-2.1769,-2.1738,-2.1745,-2.1739,-2.172,-2.1724,-2.1738,-2.1734,-2.1738,-2.173,-2.1742,-2.1746,-2.1722,-2.1719,-2.1697,-2.1711,-2.1761,-2.1684,-2.1683,-2.17,-2.1805,-2.1825,-2.1835,-2.1744,-2.1745,-2.1746,-2.1807,0,-2.1828,-2.185,-2.1821,-2.1849,-2.1856,-2.1816,-2.1828,-2.1818,-2.1802,-2.1805,-2.1788,-2.1792,-2.176,-2.1758,-2.177,-2.1753,-2.1782,-2.1748,-2.1755,-2.1755,-2.176,-2.1845,-2.1866,-2.1924,-2.1814,-2.1815,-2.1816,0,-2.1901,-2.1896,-2.1925,-2.1904,-2.1906,-2.1917,-2.1912,-2.1915,-2.1903,-2.189,-2.1887,-2.186,-2.1873,-2.1838,-2.1856,-2.1833,-2.1834,-2.1826,-2.1828,-2.1828,-2.179,-2.1849,-2.1942,-2.1951,-2.1828,-2.1827,-2.1826,0,-2.1973,-2.1973,-2.199,-2.1987,-2.1962,-2.1972,-2.1962,-2.1948,-2.1948,-2.1943,-2.1943,-2.194,-2.1939,-2.1938,-2.1912,-2.1889,-2.1933,-2.1896,-2.1924,-2.1925,-2.1936,-2.1936,-2.2032,-2.1935,-2.1935,-2.1935,-2.1935,0,-2.2043,-2.2062,-2.2022,-2.2033,-2.2054,-2.2021,-2.2043,-2.2029,-2.2017,-2.2025,-2.199,-2.1999,-2.1964,-2.1968,-2.1948,-2.1966,-2.1966,-2.1957,-2.1952,-2.1961,-2.1962,-2.1962,-2.1957,-2.1937,-2.1937,-2.1936,-2.1936,0,-2.2127,-2.2101,-2.2117,-2.2093,-2.2087,-2.2104,-2.2083,-2.2093,-2.2074,-2.2085,-2.2086,-2.2058,-2.2062,-2.2036,-2.2035,-2.2021,-2.205,-2.2037,-2.2054,-2.205,-2.208,-2.2078,-2.218,-2.2192,-2.2087,-2.2088,-2.2089,0,-2.2174,-2.2188,-2.2165,-2.2168,-2.216,-2.2164,-2.2164,-2.2132,-2.2134,-2.2121,-2.2132,-2.2133,-2.2132,-2.2141,-2.2121,-2.212,-2.2108,-2.2143,-2.2107,-2.2116,-2.211,-2.2109,-2.2111,-2.2151,-2.2153,-2.2154,-2.2154,0,-2.2261,-2.2247,-2.2248,-2.2244,-2.2244,-2.224,-2.2234,-2.2238,-2.2204,-2.2207,-2.221,-2.221,-2.2209,-2.2211,-2.2206,-2.2197,-2.2171,-2.2166,-2.2172,-2.2183,-2.2192,-2.2189,-2.2075,-2.2164,-2.2163,-2.2162,-2.2162,-2.2161,-2.2328,-2.2339,-2.2325,-2.2327,-2.2318,-2.2313,-2.2321,-2.2304,-2.2306,-2.2303,-2.2284,-2.2291,-2.2279,-2.227,-2.2263,-2.2269,-2.2252,-2.2261,-2.2264,-2.2267,-2.2273,-2.2191,-2.2268,-2.2267,-2.2267,-2.2267,-2.2267,0,-2.2414,-2.2403,-2.2405,-2.2397,-2.2399,-2.2373,-2.2364,-2.2368,-2.2375,-2.2365,-2.2365,-2.237,-2.2371,-2.2351,-2.2351,-2.2359,-2.2347,-2.236,-2.236,-2.2358,-2.2288,-2.2282,-2.237,-2.237,-2.237,-2.237,-2.237,-2.237,-2.2459,-2.2476,-2.2461,-2.2474,-2.2463,-2.2469,-2.2467,-2.2462,-2.2455,-2.2461,-2.2462,-2.2449,-2.2436,-2.2434,-2.2434,-2.2429,-2.2431,-2.2448,-2.2438,-2.2373,-2.2363,-2.2354,-2.2349,-2.2448,-2.2448,-2.2508,-2.2509,-2.2509]},{"header":{"parameterUnit":"m.s-1","parameterCategory":1,"la1":30.2991,"la2":30.254,"lo1":-89.0895,"lo2":-89.0444,"dy":0.0017,"dx":0.0017,"nx":28,"ny":28,"refTime":"2024-08-22T21:00:00:Z","depth":0,"parameterNumber":3,"parameterNumberName":"V-component_of_WINDS"},"data":[0,0,0,0,0,0,0,0,0,0,0,0,0,0,0,0,0,0,0,0,0,0,0,0,0,0,0,0,0,0,0,0,0,0,0,0,0,0,0,0,0,0,0,0,0,0,0,0,0,0,0,0,0,0,0,0,0,0,-2.619,-2.619,0,-2.6253,-2.6253,-2.6254,-2.6236,-2.6235,-2.6233,-2.6232,-2.6293,-2.6296,-2.6299,0,0,0,0,0,0,0,0,0,0,0,0,0,-2.605,-2.6053,-2.619,-2.619,-2.6191,-2.6252,-2.6253,-2.6254,-2.6236,-2.6235,-2.6233,-2.6232,-2.6292,-2.6295,-2.6299,0,0,0,0,0,0,0,0,0,0,0,0,0,-2.6112,-2.6054,-2.6189,-2.619,-2.619,-2.6252,-2.6253,-2.6254,-2.6236,-2.6235,-2.6233,-2.6231,-2.6291,-2.6295,-2.6299,-2.6364,0,0,-2.6312,-2.6314,0,0,0,0,0,0,0,0,-2.6108,-2.6117,-2.6189,-2.619,-2.6191,-2.6235,-2.6226,-2.6291,-2.6237,-2.6219,-2.6232,-2.623,-2.6275,-2.628,-2.6296,-2.6367,-2.6369,-2.6313,-2.6315,-2.6317,-2.6318,0,0,0,0,0,0,0,-2.6104,-2.6114,-2.6214,-2.619,-2.6191,-2.6185,-2.6192,-2.6239,-2.6257,-2.622,-2.6219,-2.6227,-2.6275,-2.6292,-2.6298,-2.637,-2.6312,-2.6316,-2.6319,-2.632,-2.6497,-2.6499,0,0,0,0,0,0,-2.61,-2.611,-2.6212,-2.6216,-2.6144,-2.619,-2.6197,-2.6222,-2.6256,-2.626,-2.6229,-2.6226,-2.6286,-2.6293,-2.63,-2.6378,-2.6317,-2.6321,-2.6323,-2.6495,-2.6497,-2.65,0,0,0,0,0,0,-2.6097,-2.6109,-2.621,-2.6163,-2.6176,-2.6194,-2.6223,-2.6225,-2.6242,-2.6263,-2.6265,-2.6243,-2.6285,-2.6294,-2.6348,-2.638,-2.6323,-2.6327,-2.6492,-2.6496,-2.6499,-2.6535,0,0,0,0,0,0,-2.6093,-2.6108,-2.6133,-2.6164,-2.6178,-2.6259,-2.6225,-2.6227,-2.625,-2.6247,-2.6277,-2.628,-2.6284,-2.6342,-2.6353,-2.6385,-2.633,-2.6489,-2.6494,-2.6498,-2.6531,-2.6539,-2.6546,0,0,0,0,0,-2.6088,-2.614,-2.6135,-2.6147,-2.6211,-2.6261,-2.6269,-2.6273,-2.6252,-2.6278,-2.6291,-2.6279,-2.6375,-2.6348,-2.6359,-2.6393,-2.6488,-2.6493,-2.6497,-2.6528,-2.6538,-2.6546,0,0,0,0,0,0,-2.6112,-2.6144,-2.6139,-2.6203,-2.6229,-2.6257,-2.629,-2.6283,-2.6315,-2.6311,-2.6314,-2.6321,-2.6377,-2.639,-2.636,-2.6458,-2.6428,-2.6435,-2.6447,-2.6457,-2.6464,-2.646,-2.6333,0,0,0,0,0,-2.6125,-2.6164,-2.6189,-2.6243,-2.6257,-2.6271,-2.6293,-2.6294,-2.6321,-2.6332,-2.6349,-2.6375,-2.6411,-2.6434,-2.6468,-2.6533,-2.6539,-2.6561,-2.6569,-2.6575,-2.6582,-2.6617,-2.6628,-2.6516,-2.6516,-2.6515,0,0,-2.6151,-2.6174,-2.6198,-2.6249,-2.627,-2.6309,-2.6281,-2.6323,-2.6353,-2.6338,-2.6392,-2.6405,-2.6433,-2.6494,-2.6521,-2.6507,-2.6614,-2.6581,-2.6586,-2.6589,-2.6623,-2.6634,-2.6643,-2.6519,-2.6518,-2.6518,0,0,-2.6221,-2.6242,-2.629,-2.6311,-2.6343,-2.6352,-2.6364,-2.6393,-2.6402,-2.6456,-2.6446,-2.648,-2.6541,-2.6562,-2.6581,-2.6658,-2.6649,-2.6669,-2.6708,-2.6743,-2.6752,-2.676,-2.6788,-2.6798,-2.6675,-2.6676,-2.6676,0,-2.625,-2.631,-2.6315,-2.6359,-2.6382,-2.6371,-2.6419,-2.6439,-2.648,-2.6496,-2.6479,-2.6556,-2.6575,-2.664,-2.6659,-2.6674,-2.6687,-2.6666,-2.675,-2.6758,-2.6766,-2.6793,-2.6803,-2.6678,-2.6678,-2.6677,-2.6677,0,-2.6345,-2.6387,-2.6421,-2.6463,-2.6489,-2.6535,-2.6545,-2.6571,-2.6569,-2.658,-2.6634,-2.6656,-2.6695,-2.671,-2.6708,-2.6775,-2.6765,-2.675,-2.672,-2.6779,-2.6804,-2.6814,-2.6681,-2.668,-2.668,-2.6679,0,0,-2.6432,-2.6476,-2.6488,-2.6507,-2.6542,-2.6574,-2.6618,-2.6658,-2.668,-2.6708,-2.6746,-2.6798,-2.6784,-2.6805,-2.6806,-2.6836,-2.6897,-2.6816,-2.6817,-2.6831,-2.6972,-2.6985,-2.6996,-2.689,-2.6892,-2.6894,-2.697,0,-2.6505,-2.6586,-2.6591,-2.6664,-2.6703,-2.6693,-2.6732,-2.6757,-2.6768,-2.6801,-2.6812,-2.685,-2.6828,-2.6841,-2.687,-2.6883,-2.6925,-2.6877,-2.6925,-2.6926,-2.6919,-2.701,-2.7023,-2.7094,-2.698,-2.6981,-2.6983,0,-2.6602,-2.6635,-2.6712,-2.6742,-2.6758,-2.6793,-2.683,-2.6862,-2.6889,-2.6895,-2.6919,-2.6915,-2.696,-2.6928,-2.699,-2.6958,-2.6977,-2.6986,-2.6989,-2.6995,-2.6959,-2.7018,-2.7117,-2.7128,-2.6998,-2.6997,-2.6996,0,-2.6659,-2.6722,-2.6777,-2.6793,-2.6829,-2.6854,-2.6869,-2.6895,-2.6918,-2.6949,-2.6965,-2.7,-2.7019,-2.7046,-2.7052,-2.7028,-2.7114,-2.7082,-2.712,-2.712,-2.7139,-2.7138,-2.7243,-2.715,-2.715,-2.715,-2.7149,0,-2.6741,-2.6788,-2.6803,-2.6837,-2.689,-2.6894,-2.6946,-2.696,-2.6983,-2.7019,-2.7011,-2.7044,-2.7049,-2.7083,-2.7088,-2.7139,-2.7147,-2.7153,-2.7153,-2.7154,-2.7154,-2.7168,-2.7163,-2.7152,-2.7152,-2.7151,-2.7151,0,-2.6814,-2.6826,-2.6885,-2.6914,-2.6922,-2.696,-2.6984,-2.7016,-2.7026,-2.7071,-2.7082,-2.7097,-2.7136,-2.7144,-2.7191,-2.7194,-2.7255,-2.725,-2.7246,-2.7246,-2.7283,-2.728,-2.7402,-2.7418,-2.7313,-2.7314,-2.7315,0,-2.6866,-2.6903,-2.6936,-2.6961,-2.6978,-2.7016,-2.704,-2.7046,-2.7071,-2.7105,-2.7133,-2.7172,-2.7204,-2.7267,-2.7282,-2.7317,-2.7314,-2.7354,-2.7319,-2.7319,-2.7316,-2.7314,-2.7318,-2.7361,-2.7362,-2.7363,-2.7364,0,-2.6958,-2.6962,-2.6998,-2.7036,-2.7065,-2.7095,-2.7123,-2.7142,-2.7151,-2.718,-2.7221,-2.7246,-2.7294,-2.7333,-2.7369,-2.7383,-2.7375,-2.7375,-2.7385,-2.7387,-2.7384,-2.7387,-2.7266,-2.7372,-2.7371,-2.7371,-2.737,-2.737,-2.7023,-2.7056,-2.7085,-2.7125,-2.7147,-2.7173,-2.7205,-2.7219,-2.7254,-2.7295,-2.7295,-2.7341,-2.7366,-2.7414,-2.7431,-2.7465,-2.7453,-2.7468,-2.7472,-2.7476,-2.748,-2.7377,-2.7471,-2.7471,-2.7471,-2.7471,-2.7471,0,-2.7115,-2.7134,-2.717,-2.7211,-2.7242,-2.7233,-2.7263,-2.729,-2.733,-2.7356,-2.7388,-2.7435,-2.7473,-2.749,-2.7527,-2.7552,-2.7549,-2.7561,-2.756,-2.7564,-2.7489,-2.7476,-2.7563,-2.7563,-2.7563,-2.7563,-2.7563,-2.7563,-2.7167,-2.7222,-2.723,-2.7295,-2.7312,-2.7358,-2.7377,-2.7401,-2.7421,-2.7475,-2.7507,-2.7519,-2.7541,-2.7579,-2.7613,-2.7617,-2.7631,-2.7646,-2.7648,-2.7578,-2.7569,-2.756,-2.7548,-2.7649,-2.7649,-2.772,-2.7721,-2.7721]}]]